| time (UTC) | temp F | wind direction | speed MPH | gust MPH | rain 1hr in | rain 24hr in | rain mn in | humidity % | barometer mb |
| 20260503045444 | 44 | 0 | 0.0 | 0.0 | 0.00 | 0.00 | 0.00 | 96 | 1015.2 |
| 20260503044917 | 44 | 38 | 0.0 | 1.0 | 0.00 | 0.00 | 0.00 | 96 | 1015.2 |
| 20260503044417 | 44 | 0 | 0.0 | 0.0 | 0.00 | 0.00 | 0.00 | 96 | 1015.2 |
| 20260503043917 | 44 | 0 | 0.0 | 0.0 | 0.00 | 0.00 | 0.00 | 96 | 1015.2 |
| 20260503043417 | 45 | 0 | 0.0 | 0.0 | 0.00 | 0.00 | 0.00 | 96 | 1015.2 |
| 20260503042917 | 45 | 0 | 0.0 | 0.0 | 0.00 | 0.00 | 0.00 | 96 | 1015.2 |
| 20260503042417 | 45 | 0 | 0.0 | 0.0 | 0.00 | 0.00 | 0.00 | 96 | 1015.2 |
| 20260503041917 | 45 | 0 | 0.0 | 0.0 | 0.00 | 0.00 | 0.00 | 96 | 1015.1 |
| 20260503041417 | 45 | 0 | 0.0 | 0.0 | 0.00 | 0.00 | 0.00 | 96 | 1015.1 |
| 20260503040918 | 45 | 0 | 0.0 | 0.0 | 0.00 | 0.00 | 0.00 | 96 | 1015.0 |
| 20260503040417 | 45 | 0 | 0.0 | 0.0 | 0.00 | 0.00 | 0.00 | 96 | 1015.0 |
| 20260503035917 | 45 | 0 | 0.0 | 0.0 | 0.00 | 0.00 | 0.17 | 96 | 1015.0 |
| 20260503035417 | 46 | 0 | 0.0 | 0.0 | 0.00 | 0.00 | 0.17 | 96 | 1015.0 |
| 20260503034919 | 46 | 0 | 0.0 | 0.0 | 0.00 | 0.00 | 0.17 | 96 | 1014.9 |
| 20260503034417 | 46 | 0 | 0.0 | 0.0 | 0.00 | 0.00 | 0.17 | 96 | 1014.8 |
| 20260503033919 | 46 | 0 | 0.0 | 0.0 | 0.00 | 0.00 | 0.17 | 96 | 1014.8 |
| 20260503033417 | 46 | 0 | 0.0 | 0.0 | 0.00 | 0.00 | 0.17 | 96 | 1014.8 |
| 20260503032917 | 46 | 20 | 0.0 | 0.0 | 0.00 | 0.00 | 0.17 | 96 | 1014.9 |
| 20260503032417 | 46 | 0 | 0.0 | 0.0 | 0.00 | 0.00 | 0.17 | 95 | 1014.8 |
| 20260503031927 | 46 | 0 | 0.0 | 0.0 | 0.00 | 0.00 | 0.17 | 96 | 1014.7 |
| 20260503031418 | 46 | 0 | 0.0 | 0.0 | 0.00 | 0.00 | 0.17 | 95 | 1014.7 |
| 20260503030917 | 46 | 0 | 0.0 | 0.0 | 0.00 | 0.00 | 0.17 | 95 | 1014.7 |
| 20260503030418 | 47 | 0 | 0.0 | 0.0 | 0.00 | 0.00 | 0.17 | 95 | 1014.6 |
| 20260503025917 | 47 | 0 | 0.0 | 0.0 | 0.00 | 0.00 | 0.17 | 95 | 1014.4 |
| 20260503025417 | 47 | 0 | 0.0 | 0.0 | 0.00 | 0.00 | 0.17 | 95 | 1014.5 |
| 20260503024920 | 47 | 0 | 0.0 | 0.0 | 0.00 | 0.00 | 0.17 | 95 | 1014.5 |
| 20260503024417 | 47 | 0 | 0.0 | 0.0 | 0.00 | 0.00 | 0.17 | 95 | 1014.5 |
| 20260503023917 | 47 | 0 | 0.0 | 0.0 | 0.00 | 0.00 | 0.17 | 95 | 1014.4 |
| 20260503023418 | 48 | 0 | 0.0 | 0.0 | 0.00 | 0.00 | 0.17 | 95 | 1014.3 |
| 20260503022920 | 48 | 0 | 0.0 | 0.0 | 0.00 | 0.00 | 0.17 | 95 | 1014.3 |
| 20260503022419 | 48 | 35 | 0.0 | 0.0 | 0.00 | 0.00 | 0.17 | 95 | 1014.2 |
| 20260503021918 | 48 | 0 | 0.0 | 0.0 | 0.00 | 0.00 | 0.17 | 95 | 1014.2 |
| 20260503021418 | 48 | 0 | 0.0 | 0.0 | 0.00 | 0.00 | 0.17 | 95 | 1014.0 |
| 20260503020921 | 48 | 0 | 0.0 | 0.0 | 0.00 | 0.00 | 0.17 | 95 | 1014.0 |
| 20260503020418 | 48 | 0 | 0.0 | 0.0 | 0.00 | 0.00 | 0.17 | 95 | 1013.9 |
| 20260503015921 | 48 | 0 | 0.0 | 0.0 | 0.00 | 0.00 | 0.17 | 95 | 1014.0 |
| 20260503015418 | 48 | 0 | 0.0 | 0.0 | 0.00 | 0.00 | 0.17 | 95 | 1013.9 |
| 20260503014918 | 48 | 63 | 0.0 | 0.0 | 0.00 | 0.00 | 0.17 | 95 | 1014.2 |
| 20260503014417 | 49 | 0 | 0.0 | 0.0 | 0.00 | 0.00 | 0.17 | 95 | 1014.3 |
| 20260503013917 | 49 | 0 | 0.0 | 0.0 | 0.00 | 0.00 | 0.17 | 95 | 1014.2 |
| 20260503013417 | 49 | 0 | 0.0 | 0.0 | 0.00 | 0.00 | 0.17 | 95 | 1014.2 |
| 20260503012918 | 49 | 0 | 0.0 | 0.0 | 0.00 | 0.00 | 0.17 | 95 | 1014.0 |
| 20260503012418 | 49 | 38 | 0.0 | 1.0 | 0.00 | 0.00 | 0.17 | 95 | 1013.9 |
| 20260503011917 | 49 | 0 | 0.0 | 0.0 | 0.00 | 0.00 | 0.17 | 94 | 1013.9 |
| 20260503011419 | 50 | 0 | 0.0 | 0.0 | 0.00 | 0.00 | 0.17 | 94 | 1013.8 |
| 20260503010917 | 50 | 32 | 1.0 | 1.0 | 0.00 | 0.00 | 0.17 | 94 | 1013.7 |
| 20260503010420 | 50 | 56 | 1.0 | 1.0 | 0.00 | 0.00 | 0.17 | 94 | 1013.6 |
| 20260503005919 | 50 | 0 | 0.0 | 0.0 | 0.00 | 0.00 | 0.17 | 94 | 1013.5 |
| 20260503005417 | 50 | 0 | 0.0 | 0.0 | 0.00 | 0.00 | 0.17 | 94 | 1013.4 |
| 20260503004917 | 50 | 0 | 0.0 | 0.0 | 0.00 | 0.00 | 0.17 | 94 | 1013.4 |
| 20260503004417 | 51 | 0 | 0.0 | 0.0 | 0.00 | 0.00 | 0.17 | 93 | 1013.3 |
| 20260503003918 | 51 | 0 | 0.0 | 0.0 | 0.00 | 0.00 | 0.17 | 93 | 1013.2 |
| 20260503003418 | 51 | 0 | 0.0 | 0.0 | 0.00 | 0.00 | 0.17 | 93 | 1013.1 |
| 20260503002926 | 51 | 0 | 0.0 | 0.0 | 0.00 | 0.00 | 0.17 | 92 | 1013.0 |
| 20260503002418 | 52 | 0 | 0.0 | 0.0 | 0.00 | 0.00 | 0.17 | 92 | 1013.0 |
| 20260503001917 | 52 | 35 | 0.0 | 1.0 | 0.00 | 0.00 | 0.17 | 91 | 1012.9 |
| 20260503001418 | 52 | 0 | 0.0 | 0.0 | 0.00 | 0.00 | 0.17 | 91 | 1012.8 |
| 20260503000917 | 53 | 0 | 0.0 | 0.0 | 0.00 | 0.00 | 0.17 | 90 | 1012.7 |
| 20260503000417 | 53 | 0 | 0.0 | 0.0 | 0.00 | 0.00 | 0.17 | 90 | 1012.7 |
| 20260502235917 | 53 | 0 | 0.0 | 0.0 | 0.00 | 0.00 | 0.17 | 89 | 1012.7 |
| 20260502235420 | 54 | 0 | 0.0 | 0.0 | 0.00 | 0.00 | 0.17 | 89 | 1012.6 |
| 20260502234919 | 54 | 0 | 0.0 | 0.0 | 0.00 | 0.00 | 0.17 | 89 | 1012.5 |
| 20260502234417 | 54 | 0 | 0.0 | 0.0 | 0.00 | 0.00 | 0.17 | 88 | 1012.4 |
| 20260502233917 | 54 | 0 | 0.0 | 0.0 | 0.00 | 0.00 | 0.17 | 89 | 1012.3 |
| 20260502233417 | 55 | 8 | 0.0 | 0.0 | 0.00 | 0.00 | 0.17 | 89 | 1012.1 |
| 20260502232918 | 55 | 0 | 0.0 | 0.0 | 0.00 | 0.00 | 0.17 | 89 | 1012.2 |
| 20260502232418 | 54 | 0 | 0.0 | 0.0 | 0.00 | 0.00 | 0.17 | 89 | 1012.2 |
| 20260502231917 | 55 | 0 | 0.0 | 0.0 | 0.00 | 0.00 | 0.17 | 89 | 1012.3 |
| 20260502231417 | 54 | 0 | 0.0 | 0.0 | 0.00 | 0.00 | 0.17 | 89 | 1012.2 |
| 20260502230917 | 54 | 0 | 0.0 | 0.0 | 0.00 | 0.00 | 0.17 | 89 | 1012.2 |
| 20260502230417 | 54 | 0 | 0.0 | 0.0 | 0.00 | 0.00 | 0.17 | 89 | 1012.2 |
| 20260502225917 | 54 | 0 | 0.0 | 0.0 | 0.00 | 0.00 | 0.17 | 88 | 1012.1 |
| 20260502225417 | 54 | 0 | 0.0 | 0.0 | 0.00 | 0.00 | 0.17 | 89 | 1012.1 |
| 20260502224917 | 54 | 0 | 0.0 | 0.0 | 0.00 | 0.00 | 0.17 | 88 | 1012.1 |
| 20260502224417 | 55 | 0 | 0.0 | 0.0 | 0.00 | 0.00 | 0.17 | 88 | 1012.0 |
| 20260502223917 | 55 | 0 | 0.0 | 0.0 | 0.00 | 0.00 | 0.17 | 87 | 1012.0 |
| 20260502223418 | 55 | 0 | 0.0 | 0.0 | 0.00 | 0.00 | 0.17 | 87 | 1012.1 |
| 20260502222918 | 55 | 0 | 0.0 | 0.0 | 0.00 | 0.00 | 0.17 | 88 | 1012.1 |
| 20260502222417 | 55 | 0 | 0.0 | 0.0 | 0.00 | 0.00 | 0.17 | 88 | 1012.1 |
| 20260502221917 | 55 | 0 | 0.0 | 0.0 | 0.00 | 0.00 | 0.17 | 87 | 1012.0 |
| 20260502221417 | 55 | 0 | 0.0 | 0.0 | 0.00 | 0.00 | 0.17 | 86 | 1012.0 |
| 20260502220917 | 55 | 0 | 0.0 | 0.0 | 0.00 | 0.00 | 0.17 | 86 | 1012.0 |
| 20260502220417 | 55 | 0 | 0.0 | 0.0 | 0.00 | 0.00 | 0.17 | 86 | 1012.1 |
| 20260502215917 | 55 | 3 | 0.0 | 1.0 | 0.00 | 0.00 | 0.17 | 85 | 1011.9 |
| 20260502215418 | 55 | 37 | 0.0 | 0.0 | 0.00 | 0.00 | 0.17 | 85 | 1011.8 |
| 20260502214917 | 56 | 0 | 0.0 | 0.0 | 0.00 | 0.00 | 0.17 | 86 | 1011.8 |
| 20260502214417 | 56 | 0 | 0.0 | 0.0 | 0.00 | 0.00 | 0.17 | 86 | 1011.8 |
| 20260502213917 | 56 | 0 | 0.0 | 0.0 | 0.00 | 0.00 | 0.17 | 87 | 1011.8 |
| 20260502213417 | 55 | 0 | 0.0 | 0.0 | 0.00 | 0.00 | 0.17 | 86 | 1011.8 |
| 20260502212917 | 55 | 0 | 0.0 | 0.0 | 0.00 | 0.00 | 0.17 | 86 | 1011.7 |
| 20260502212417 | 55 | 49 | 0.0 | 2.0 | 0.00 | 0.00 | 0.17 | 87 | 1011.8 |
| 20260502211917 | 55 | 0 | 0.0 | 0.0 | 0.00 | 0.00 | 0.17 | 87 | 1011.8 |
| 20260502211417 | 55 | 0 | 0.0 | 0.0 | 0.00 | 0.00 | 0.17 | 86 | 1011.9 |
| 20260502210917 | 55 | 44 | 0.0 | 1.0 | 0.00 | 0.00 | 0.17 | 85 | 1011.8 |
| 20260502210417 | 56 | 44 | 1.0 | 2.0 | 0.00 | 0.00 | 0.17 | 84 | 1011.7 |
| 20260502205917 | 56 | 0 | 0.0 | 0.0 | 0.00 | 0.00 | 0.17 | 84 | 1011.7 |
| 20260502205417 | 57 | 0 | 0.0 | 0.0 | 0.00 | 0.00 | 0.17 | 82 | 1011.7 |
| 20260502204917 | 57 | 0 | 0.0 | 0.0 | 0.00 | 0.00 | 0.17 | 80 | 1011.8 |
| 20260502204417 | 57 | 286 | 0.0 | 2.0 | 0.00 | 0.00 | 0.17 | 76 | 1011.7 |
| 20260502203917 | 57 | 41 | 1.0 | 3.0 | 0.00 | 0.00 | 0.17 | 76 | 1011.8 |
| 20260502203418 | 57 | 0 | 0.0 | 0.0 | 0.00 | 0.00 | 0.17 | 78 | 1011.8 |
| 20260502202918 | 57 | 0 | 0.0 | 0.0 | 0.00 | 0.00 | 0.17 | 82 | 1011.8 |
| 20260502202417 | 57 | 0 | 0.0 | 0.0 | 0.00 | 0.00 | 0.17 | 80 | 1011.9 |
| 20260502201918 | 57 | 292 | 0.0 | 2.0 | 0.00 | 0.00 | 0.17 | 77 | 1011.9 |
| 20260502201417 | 57 | 350 | 1.0 | 2.0 | 0.00 | 0.00 | 0.17 | 81 | 1011.8 |
| 20260502200918 | 57 | 50 | 0.0 | 2.0 | 0.00 | 0.00 | 0.17 | 80 | 1011.8 |
| 20260502200417 | 57 | 0 | 0.0 | 0.0 | 0.00 | 0.00 | 0.17 | 80 | 1011.8 |
| 20260502195918 | 57 | 0 | 0.0 | 0.0 | 0.00 | 0.00 | 0.17 | 79 | 1011.8 |
| 20260502195417 | 57 | 0 | 0.0 | 0.0 | 0.00 | 0.00 | 0.17 | 80 | 1011.8 |
| 20260502194917 | 57 | 60 | 1.0 | 2.0 | 0.00 | 0.00 | 0.17 | 83 | 1011.9 |
| 20260502194417 | 57 | 58 | 2.0 | 4.0 | 0.00 | 0.00 | 0.17 | 81 | 1011.9 |
| 20260502193917 | 57 | 59 | 1.0 | 2.0 | 0.00 | 0.00 | 0.17 | 83 | 1011.9 |
| 20260502193421 | 56 | 259 | 0.0 | 0.0 | 0.00 | 0.00 | 0.17 | 80 | 1012.0 |
| 20260502192920 | 56 | 48 | 1.0 | 2.0 | 0.00 | 0.00 | 0.17 | 82 | 1012.1 |
| 20260502192417 | 56 | 51 | 0.0 | 1.0 | 0.00 | 0.00 | 0.17 | 82 | 1012.2 |
| 20260502191917 | 56 | 68 | 0.0 | 0.0 | 0.00 | 0.00 | 0.17 | 81 | 1012.3 |
| 20260502191417 | 56 | 284 | 0.0 | 1.0 | 0.00 | 0.00 | 0.17 | 82 | 1012.4 |
| 20260502190917 | 56 | 280 | 1.0 | 2.0 | 0.00 | 0.00 | 0.17 | 85 | 1012.4 |
| 20260502190418 | 56 | 0 | 0.0 | 0.0 | 0.00 | 0.00 | 0.17 | 83 | 1012.3 |
| 20260502185917 | 56 | 25 | 1.0 | 2.0 | 0.00 | 0.00 | 0.17 | 82 | 1012.3 |
| 20260502185418 | 56 | 294 | 0.0 | 1.0 | 0.00 | 0.00 | 0.17 | 82 | 1012.4 |
| 20260502184918 | 56 | 54 | 1.0 | 2.0 | 0.00 | 0.00 | 0.17 | 81 | 1012.4 |
| 20260502184417 | 56 | 54 | 1.0 | 2.0 | 0.00 | 0.00 | 0.17 | 85 | 1012.5 |
| 20260502183917 | 55 | 0 | 0.0 | 0.0 | 0.00 | 0.00 | 0.17 | 84 | 1012.5 |
| 20260502183417 | 55 | 274 | 1.0 | 2.0 | 0.00 | 0.00 | 0.17 | 82 | 1012.5 |
| 20260502182918 | 55 | 287 | 1.0 | 2.0 | 0.00 | 0.00 | 0.17 | 82 | 1012.6 |
| 20260502182418 | 56 | 151 | 0.0 | 0.0 | 0.00 | 0.00 | 0.17 | 87 | 1012.7 |
| 20260502181917 | 55 | 255 | 0.0 | 0.0 | 0.00 | 0.00 | 0.17 | 84 | 1012.6 |
| 20260502181417 | 55 | 43 | 0.0 | 1.0 | 0.00 | 0.00 | 0.17 | 87 | 1012.6 |
| 20260502180918 | 55 | 279 | 0.0 | 1.0 | 0.00 | 0.00 | 0.17 | 88 | 1012.8 |
| 20260502180417 | 55 | 252 | 0.0 | 2.0 | 0.00 | 0.00 | 0.17 | 87 | 1012.9 |
| 20260502170417 | 53 | 60 | 0.0 | 0.0 | 0.00 | 0.00 | 0.17 | 91 | 1012.9 |
| 20260502163919 | 53 | 273 | 3.0 | 4.0 | 0.00 | 0.00 | 0.17 | 90 | 1013.4 |
| 20260502163420 | 53 | 284 | 1.0 | 5.0 | 0.00 | 0.00 | 0.16 | 90 | 1013.4 |
| 20260502162918 | 53 | 338 | 1.0 | 2.0 | 0.00 | 0.00 | 0.16 | 90 | 1013.6 |
| 20260502162418 | 54 | 0 | 0.0 | 0.0 | 0.00 | 0.00 | 0.16 | 90 | 1013.8 |
| 20260502161917 | 54 | 258 | 1.0 | 2.0 | 0.00 | 0.00 | 0.18 | 91 | 1013.7 |
| 20260502161418 | 54 | 0 | 0.0 | 0.0 | 0.00 | 0.00 | 0.18 | 91 | 1013.8 |
| 20260502160917 | 53 | 45 | 1.0 | 2.0 | 0.00 | 0.00 | 0.18 | 91 | 1013.9 |
| 20260502160418 | 53 | 0 | 0.0 | 0.0 | 0.00 | 0.00 | 0.17 | 91 | 1014.0 |
| 20260502151917 | 53 | 0 | 0.0 | 0.0 | 0.00 | 0.00 | 0.14 | 91 | 1013.8 |
| 20260502151421 | 53 | 66 | 1.0 | 2.0 | 0.00 | 0.00 | 0.14 | 91 | 1013.7 |
| 20260502150918 | 53 | 48 | 0.0 | 1.0 | 0.00 | 0.00 | 0.14 | 92 | 1013.9 |
| 20260502150419 | 54 | 48 | 0.0 | 0.0 | 0.00 | 0.00 | 0.14 | 92 | 1013.7 |
| 20260502130419 | 52 | 33 | 0.0 | 1.0 | 0.00 | 0.00 | 0.07 | 93 | 1013.1 |
| 20260502123418 | 52 | 0 | 0.0 | 0.0 | 0.00 | 0.00 | 0.05 | 93 | 1013.1 |
| 20260502122917 | 52 | 0 | 0.0 | 0.0 | 0.00 | 0.00 | 0.05 | 94 | 1013.0 |
| 20260502122418 | 52 | 0 | 0.0 | 0.0 | 0.00 | 0.00 | 0.05 | 94 | 1012.8 |
| 20260502121917 | 52 | 0 | 0.0 | 0.0 | 0.00 | 0.00 | 0.04 | 94 | 1012.6 |
| 20260502121418 | 52 | 0 | 0.0 | 0.0 | 0.00 | 0.00 | 0.04 | 94 | 1012.6 |
| 20260502120918 | 52 | 0 | 0.0 | 0.0 | 0.00 | 0.00 | 0.04 | 94 | 1012.6 |
| 20260502120417 | 52 | 0 | 0.0 | 0.0 | 0.00 | 0.00 | 0.03 | 94 | 1012.6 |
| 20260502115917 | 52 | 0 | 0.0 | 0.0 | 0.00 | 0.00 | 0.04 | 94 | 1012.6 |
| 20260502115417 | 52 | 0 | 0.0 | 0.0 | 0.00 | 0.00 | 0.04 | 94 | 1012.7 |
| 20260502114917 | 52 | 0 | 0.0 | 0.0 | 0.00 | 0.00 | 0.03 | 94 | 1012.8 |
| 20260502114420 | 52 | 0 | 0.0 | 0.0 | 0.00 | 0.00 | 0.03 | 94 | 1012.8 |
| 20260502113921 | 52 | 0 | 0.0 | 0.0 | 0.00 | 0.00 | 0.03 | 93 | 1012.7 |
| 20260502113417 | 52 | 0 | 0.0 | 0.0 | 0.00 | 0.00 | 0.03 | 93 | 1012.8 |
| 20260502112917 | 52 | 0 | 0.0 | 0.0 | 0.00 | 0.00 | 0.03 | 93 | 1012.7 |
| 20260502112418 | 52 | 0 | 0.0 | 0.0 | 0.00 | 0.00 | 0.03 | 93 | 1012.7 |
| 20260502111917 | 52 | 0 | 0.0 | 0.0 | 0.00 | 0.00 | 0.02 | 93 | 1012.7 |
| 20260502111418 | 52 | 52 | 1.0 | 1.0 | 0.00 | 0.00 | 0.02 | 93 | 1012.8 |
| 20260502110918 | 52 | 0 | 0.0 | 0.0 | 0.00 | 0.00 | 0.02 | 93 | 1013.0 |
| 20260502110418 | 53 | 0 | 0.0 | 0.0 | 0.00 | 0.00 | 0.01 | 93 | 1013.0 |
| 20260502105917 | 53 | 0 | 0.0 | 0.0 | 0.00 | 0.00 | 0.01 | 93 | 1013.0 |
| 20260502105417 | 53 | 0 | 0.0 | 0.0 | 0.00 | 0.00 | 0.01 | 92 | 1013.0 |
| 20260502104918 | 53 | 0 | 0.0 | 0.0 | 0.00 | 0.00 | 0.00 | 92 | 1013.0 |
| 20260502104417 | 53 | 0 | 0.0 | 0.0 | 0.00 | 0.00 | 0.00 | 92 | 1013.0 |
| 20260502103917 | 53 | 0 | 0.0 | 0.0 | 0.00 | 0.00 | 0.00 | 92 | 1013.0 |
| 20260502103418 | 53 | 0 | 0.0 | 0.0 | 0.00 | 0.00 | 0.00 | 92 | 1013.0 |
| 20260502102918 | 53 | 43 | 0.0 | 1.0 | 0.00 | 0.00 | 0.00 | 92 | 1013.0 |
| 20260502102417 | 53 | 0 | 0.0 | 0.0 | 0.00 | 0.00 | 0.00 | 91 | 1013.0 |
| 20260502101918 | 53 | 0 | 0.0 | 0.0 | 0.00 | 0.00 | 0.00 | 91 | 1013.0 |
| 20260502101417 | 53 | 0 | 0.0 | 0.0 | 0.00 | 0.00 | 0.00 | 91 | 1013.0 |
| 20260502100918 | 53 | 55 | 0.0 | 1.0 | 0.00 | 0.00 | 0.00 | 91 | 1012.9 |
| 20260502100417 | 53 | 0 | 0.0 | 0.0 | 0.00 | 0.00 | 0.00 | 91 | 1013.1 |
| 20260502091417 | 53 | 0 | 0.0 | 0.0 | 0.00 | 0.00 | 0.00 | 92 | 1013.1 |
| 20260502090918 | 53 | 0 | 0.0 | 0.0 | 0.00 | 0.00 | 0.00 | 93 | 1013.1 |
| 20260502090419 | 53 | 0 | 0.0 | 0.0 | 0.00 | 0.00 | 0.00 | 93 | 1012.9 |
| 20260502071417 | 52 | 0 | 0.0 | 0.0 | 0.00 | 0.00 | 0.00 | 95 | 1011.9 |
| 20260502070917 | 52 | 0 | 0.0 | 0.0 | 0.00 | 0.00 | 0.00 | 95 | 1011.8 |
| 20260502070419 | 52 | 0 | 0.0 | 0.0 | 0.00 | 0.00 | 0.00 | 95 | 1011.9 |
| 20260502065918 | 52 | 0 | 0.0 | 0.0 | 0.00 | 0.00 | 0.00 | 95 | 1012.0 |
| 20260502065417 | 52 | 0 | 0.0 | 0.0 | 0.00 | 0.00 | 0.00 | 95 | 1012.0 |
| 20260502064919 | 52 | 0 | 0.0 | 0.0 | 0.00 | 0.00 | 0.00 | 95 | 1012.0 |
| 20260502064418 | 52 | 0 | 0.0 | 0.0 | 0.00 | 0.00 | 0.00 | 95 | 1012.1 |
| 20260502063917 | 52 | 0 | 0.0 | 0.0 | 0.00 | 0.00 | 0.00 | 95 | 1012.1 |
| 20260502063417 | 52 | 0 | 0.0 | 0.0 | 0.00 | 0.00 | 0.00 | 95 | 1012.2 |
| 20260502062917 | 52 | 0 | 0.0 | 0.0 | 0.00 | 0.00 | 0.00 | 95 | 1012.2 |
| 20260502062417 | 52 | 0 | 0.0 | 0.0 | 0.00 | 0.00 | 0.00 | 95 | 1012.2 |
| 20260502061917 | 52 | 0 | 0.0 | 0.0 | 0.00 | 0.00 | 0.00 | 95 | 1012.3 |
| 20260502061417 | 52 | 0 | 0.0 | 0.0 | 0.00 | 0.00 | 0.00 | 95 | 1012.4 |
| 20260502060917 | 52 | 0 | 0.0 | 0.0 | 0.00 | 0.00 | 0.00 | 95 | 1012.3 |
| 20260502060417 | 52 | 0 | 0.0 | 0.0 | 0.00 | 0.00 | 0.00 | 95 | 1012.4 |
| 20260502055917 | 52 | 0 | 0.0 | 0.0 | 0.00 | 0.00 | 0.00 | 95 | 1012.5 |
| 20260502055418 | 52 | 0 | 0.0 | 0.0 | 0.00 | 0.00 | 0.00 | 95 | 1012.4 |
| 20260502054917 | 52 | 0 | 0.0 | 0.0 | 0.00 | 0.00 | 0.00 | 95 | 1012.5 |
| 20260502054417 | 52 | 0 | 0.0 | 0.0 | 0.00 | 0.00 | 0.00 | 94 | 1012.5 |
| 20260502053918 | 52 | 0 | 0.0 | 0.0 | 0.00 | 0.00 | 0.00 | 94 | 1012.5 |
| 20260502053418 | 52 | 0 | 0.0 | 0.0 | 0.00 | 0.00 | 0.00 | 94 | 1012.6 |
| 20260502052918 | 52 | 0 | 0.0 | 0.0 | 0.00 | 0.00 | 0.00 | 94 | 1012.6 |
| 20260502052417 | 52 | 0 | 0.0 | 0.0 | 0.00 | 0.00 | 0.00 | 94 | 1012.7 |
| 20260502051918 | 52 | 0 | 0.0 | 0.0 | 0.00 | 0.00 | 0.00 | 94 | 1012.7 |
| 20260502051418 | 52 | 0 | 0.0 | 0.0 | 0.00 | 0.00 | 0.00 | 94 | 1012.8 |
| 20260502050917 | 52 | 0 | 0.0 | 0.0 | 0.00 | 0.00 | 0.00 | 94 | 1012.8 |
| 20260502050417 | 52 | 0 | 0.0 | 0.0 | 0.00 | 0.00 | 0.00 | 94 | 1012.9 |